GLO1248 SBCF-SBPS

Flight info

Callsign GLO1248
Flight time 1h 0m
Altitude 33000
Route KADOR DCT POSMU DCT OSUNO
Aircraft B738/M-SDFGIKLORWXY/LB1

Departure

Time 2026-05-08 20:12
Airport Tancredo Neves International Airport (SBCF)

Arrival

Time 2026-05-08 21:12
Airport Porto Seguro International Airport (SBPS)
Time Latitude Longitude Altitude Speed Heading
2026-05-08 19:48 -19.62850 -43.96833 2810 ft 0 kts 48°
2026-05-08 20:03 -19.62863 -43.96848 2810 ft 4 kts 41°
2026-05-08 20:03 -19.62884 -43.96864 2810 ft 4 kts 20°
2026-05-08 20:03 -19.62908 -43.96867 2815 ft 4 kts 327°
2026-05-08 20:04 -19.62914 -43.96863 2810 ft 1 kts 313°
2026-05-08 20:07 -19.62913 -43.96863 2810 ft 0 kts 313°
2026-05-08 20:07 -19.62892 -43.96887 2811 ft 10 kts 314°
2026-05-08 20:07 -19.62826 -43.96950 2812 ft 14 kts 317°
2026-05-08 20:08 -19.62800 -43.97040 2812 ft 13 kts 248°
2026-05-08 20:08 -19.62831 -43.97126 2815 ft 13 kts 283°
2026-05-08 20:08 -19.62775 -43.97197 2810 ft 13 kts 318°
2026-05-08 20:08 -19.62711 -43.97258 2811 ft 12 kts 318°
2026-05-08 20:09 -19.62648 -43.97318 2811 ft 13 kts 318°
2026-05-08 20:09 -19.62576 -43.97387 2811 ft 15 kts 319°
2026-05-08 20:09 -19.62521 -43.97437 2811 ft 16 kts 319°
2026-05-08 20:09 -19.62407 -43.97541 2810 ft 16 kts 319°
2026-05-08 20:10 -19.62325 -43.97615 2811 ft 15 kts 319°
2026-05-08 20:10 -19.62250 -43.97687 2814 ft 14 kts 311°
2026-05-08 20:10 -19.62276 -43.97773 2815 ft 14 kts 207°
2026-05-08 20:10 -19.62368 -43.97786 2812 ft 11 kts 178°
2026-05-08 20:11 -19.62406 -43.97767 2810 ft 8 kts 137°
2026-05-08 20:11 -19.62412 -43.97760 2809 ft 0 kts 136°
2026-05-08 20:11 -19.62725 -43.97464 2809 ft 97 kts 139°
2026-05-08 20:12 -19.63147 -43.97081 2812 ft 144 kts 138°
2026-05-08 20:12 -19.64039 -43.96239 2961 ft 189 kts 138°
2026-05-08 20:12 -19.65042 -43.95291 3800 ft 195 kts 137°
2026-05-08 20:12 -19.66040 -43.94344 4719 ft 184 kts 139°
2026-05-08 20:13 -19.66841 -43.93334 5198 ft 181 kts 102°
2026-05-08 20:13 -19.66756 -43.92046 5576 ft 176 kts 71°
2026-05-08 20:13 -19.66395 -43.90725 5942 ft 203 kts 72°
2026-05-08 20:13 -19.65991 -43.89190 6163 ft 229 kts 72°
2026-05-08 20:14 -19.65549 -43.87476 6440 ft 251 kts 73°
2026-05-08 20:14 -19.65078 -43.85600 6736 ft 273 kts 73°
2026-05-08 20:14 -19.64594 -43.83618 7500 ft 279 kts 73°
2026-05-08 20:14 -19.64112 -43.81604 8388 ft 283 kts 74°
2026-05-08 20:15 -19.63627 -43.79568 8812 ft 285 kts 74°
2026-05-08 20:15 -19.63136 -43.77501 9083 ft 289 kts 73°
2026-05-08 20:15 -19.62643 -43.75426 9092 ft 291 kts 73°
2026-05-08 20:15 -19.62152 -43.73368 9090 ft 289 kts 72°
2026-05-08 20:16 -19.61285 -43.71453 9130 ft 286 kts 50°
2026-05-08 20:16 -19.60016 -43.69844 9700 ft 288 kts 48°
2026-05-08 20:16 -19.58715 -43.68197 10047 ft 288 kts 49°
2026-05-08 20:16 -19.57442 -43.66575 10086 ft 289 kts 49°
2026-05-08 20:17 -19.56154 -43.64926 10094 ft 289 kts 49°
2026-05-08 20:17 -19.54872 -43.63280 10101 ft 289 kts 49°
2026-05-08 20:17 -19.53589 -43.61632 10109 ft 290 kts 49°
2026-05-08 20:17 -19.52306 -43.59980 10106 ft 290 kts 49°
2026-05-08 20:18 -19.51037 -43.58340 10107 ft 291 kts 50°
2026-05-08 20:18 -19.49754 -43.56598 10216 ft 309 kts 51°
2026-05-08 20:18 -19.48399 -43.54722 10612 ft 326 kts 51°
2026-05-08 20:18 -19.47007 -43.52789 11314 ft 332 kts 51°
2026-05-08 20:19 -19.45611 -43.50854 12111 ft 334 kts 51°
2026-05-08 20:19 -19.44188 -43.48885 12900 ft 338 kts 51°
2026-05-08 20:19 -19.42745 -43.46892 13627 ft 342 kts 51°
2026-05-08 20:19 -19.41281 -43.44876 14330 ft 346 kts 51°
2026-05-08 20:20 -19.39822 -43.42865 15017 ft 350 kts 51°
2026-05-08 20:20 -19.38330 -43.40806 15704 ft 354 kts 52°
2026-05-08 20:20 -19.36819 -43.38724 16381 ft 358 kts 51°
2026-05-08 20:20 -19.35308 -43.36645 17028 ft 361 kts 52°
2026-05-08 20:21 -19.33764 -43.34521 17669 ft 365 kts 52°
2026-05-08 20:21 -19.32199 -43.32366 18270 ft 369 kts 52°
2026-05-08 20:21 -19.30628 -43.30201 18870 ft 373 kts 52°
2026-05-08 20:21 -19.29056 -43.28033 19419 ft 377 kts 52°
2026-05-08 20:22 -19.27445 -43.25813 19970 ft 381 kts 52°
2026-05-08 20:22 -19.25818 -43.23569 20509 ft 385 kts 52°
2026-05-08 20:22 -19.24174 -43.21305 21025 ft 390 kts 52°
2026-05-08 20:22 -19.22509 -43.19012 21517 ft 394 kts 52°
2026-05-08 20:23 -19.20846 -43.16722 22020 ft 397 kts 52°
2026-05-08 20:23 -19.19142 -43.14378 22483 ft 401 kts 52°
2026-05-08 20:23 -19.17427 -43.12018 22944 ft 405 kts 52°
2026-05-08 20:23 -19.15722 -43.09673 23388 ft 408 kts 53°
2026-05-08 20:24 -19.13979 -43.07278 23809 ft 412 kts 53°
2026-05-08 20:24 -19.12219 -43.04859 24235 ft 416 kts 53°
2026-05-08 20:24 -19.10440 -43.02416 24631 ft 419 kts 53°
2026-05-08 20:24 -19.08673 -42.99990 25013 ft 423 kts 53°
2026-05-08 20:25 -19.06860 -42.97503 25371 ft 427 kts 53°
2026-05-08 20:25 -19.05037 -42.95002 25757 ft 430 kts 53°
2026-05-08 20:25 -19.03221 -42.92512 26132 ft 433 kts 53°
2026-05-08 20:25 -19.01358 -42.89958 26500 ft 437 kts 53°
2026-05-08 20:26 -18.99518 -42.87437 26868 ft 440 kts 53°
2026-05-08 20:26 -18.97639 -42.84862 27186 ft 444 kts 53°
2026-05-08 20:26 -18.95741 -42.82263 27531 ft 447 kts 53°
2026-05-08 20:26 -18.93831 -42.79650 27869 ft 450 kts 53°
2026-05-08 20:27 -18.91987 -42.76995 28169 ft 453 kts 58°
2026-05-08 20:27 -18.90424 -42.74113 28486 ft 455 kts 63°
2026-05-08 20:27 -18.88953 -42.71099 28799 ft 458 kts 64°
2026-05-08 20:27 -18.87532 -42.68124 29113 ft 461 kts 64°
2026-05-08 20:28 -18.86069 -42.65104 29504 ft 461 kts 63°
2026-05-08 20:28 -18.84579 -42.62093 29950 ft 460 kts 63°
2026-05-08 20:28 -18.83075 -42.59102 30414 ft 459 kts 63°
2026-05-08 20:28 -18.81579 -42.56156 30786 ft 460 kts 63°
2026-05-08 20:29 -18.80056 -42.53166 31142 ft 461 kts 63°
2026-05-08 20:29 -18.78533 -42.50176 31564 ft 460 kts 63°
2026-05-08 20:29 -18.77018 -42.47199 32002 ft 459 kts 63°
2026-05-08 20:29 -18.75519 -42.44253 32377 ft 459 kts 63°
2026-05-08 20:30 -18.73988 -42.41272 32735 ft 459 kts 63°
2026-05-08 20:30 -18.72474 -42.38345 33072 ft 460 kts 63°
2026-05-08 20:30 -18.69361 -42.32352 33074 ft 465 kts 63°
2026-05-08 20:31 -18.66293 -42.26447 33064 ft 457 kts 63°
2026-05-08 20:31 -18.63230 -42.20546 33082 ft 458 kts 63°
2026-05-08 20:32 -18.60178 -42.14667 33081 ft 460 kts 63°
2026-05-08 20:32 -18.57093 -42.08731 33078 ft 461 kts 63°
2026-05-08 20:33 -18.54013 -42.02810 33073 ft 462 kts 63°
2026-05-08 20:33 -18.50917 -41.96865 33073 ft 462 kts 63°
2026-05-08 20:34 -18.47838 -41.90959 33073 ft 461 kts 63°
2026-05-08 20:35 -18.43223 -41.82115 33071 ft 460 kts 63°
2026-05-08 20:35 -18.40136 -41.76207 33072 ft 458 kts 63°
2026-05-08 20:36 -18.37060 -41.70326 33062 ft 457 kts 63°
2026-05-08 20:36 -18.34010 -41.64500 33063 ft 456 kts 63°
2026-05-08 20:37 -18.30957 -41.58672 33066 ft 456 kts 63°
2026-05-08 20:37 -18.27887 -41.52817 33063 ft 456 kts 63°
2026-05-08 20:38 -18.24833 -41.47000 33063 ft 456 kts 63°
2026-05-08 20:38 -18.21757 -41.41147 33068 ft 456 kts 63°
2026-05-08 20:39 -18.18692 -41.35319 33060 ft 456 kts 63°
2026-05-08 20:39 -18.15613 -41.29468 33061 ft 456 kts 63°
2026-05-08 20:40 -18.12550 -41.23656 33065 ft 456 kts 63°
2026-05-08 20:40 -18.09481 -41.17836 33058 ft 456 kts 63°
2026-05-08 20:41 -18.06407 -41.12014 33060 ft 456 kts 63°
2026-05-08 20:41 -18.03320 -41.06169 33068 ft 456 kts 63°
2026-05-08 20:42 -18.00243 -41.00351 33066 ft 456 kts 63°
2026-05-08 20:42 -17.97159 -40.94525 33067 ft 456 kts 63°
2026-05-08 20:43 -17.94073 -40.88699 33061 ft 455 kts 63°
2026-05-08 20:43 -17.91019 -40.82941 33062 ft 453 kts 63°
2026-05-08 20:44 -17.87951 -40.77161 33061 ft 450 kts 63°
2026-05-08 20:44 -17.86431 -40.74301 32924 ft 444 kts 63°
2026-05-08 20:44 -17.84951 -40.71517 32612 ft 437 kts 63°
2026-05-08 20:44 -17.83470 -40.68731 32233 ft 433 kts 63°
2026-05-08 20:45 -17.82002 -40.65972 31866 ft 430 kts 63°
2026-05-08 20:45 -17.81037 -40.64157 31599 ft 428 kts 63°
2026-05-08 20:45 -17.79121 -40.60556 31084 ft 424 kts 63°
2026-05-08 20:45 -17.77687 -40.57863 30689 ft 421 kts 63°
2026-05-08 20:46 -17.76259 -40.55181 30301 ft 419 kts 63°
2026-05-08 20:46 -17.74844 -40.52525 29915 ft 416 kts 63°
2026-05-08 20:46 -17.73434 -40.49880 29519 ft 413 kts 63°
2026-05-08 20:46 -17.72049 -40.47283 29121 ft 410 kts 63°
2026-05-08 20:47 -17.70657 -40.44675 28717 ft 408 kts 63°
2026-05-08 20:47 -17.69278 -40.42090 28316 ft 405 kts 63°
2026-05-08 20:47 -17.67905 -40.39520 27923 ft 402 kts 63°
2026-05-08 20:47 -17.66538 -40.36961 27515 ft 399 kts 63°
2026-05-08 20:48 -17.65185 -40.34429 27122 ft 397 kts 63°
2026-05-08 20:48 -17.63855 -40.31940 26722 ft 394 kts 63°
2026-05-08 20:48 -17.62517 -40.29438 26334 ft 391 kts 63°
2026-05-08 20:48 -17.61188 -40.26954 25941 ft 389 kts 63°
2026-05-08 20:49 -17.59867 -40.24487 25560 ft 386 kts 63°
2026-05-08 20:49 -17.58556 -40.22038 25163 ft 383 kts 63°
2026-05-08 20:49 -17.57254 -40.19606 24780 ft 381 kts 63°
2026-05-08 20:49 -17.55976 -40.17220 24394 ft 378 kts 63°
2026-05-08 20:50 -17.54692 -40.14825 24011 ft 375 kts 63°
2026-05-08 20:50 -17.53415 -40.12442 23628 ft 373 kts 63°
2026-05-08 20:50 -17.52145 -40.10075 23239 ft 370 kts 62°
2026-05-08 20:50 -17.50887 -40.07729 22865 ft 368 kts 62°
2026-05-08 20:51 -17.49652 -40.05429 22481 ft 365 kts 62°
2026-05-08 20:51 -17.48413 -40.03119 22108 ft 363 kts 62°
2026-05-08 20:51 -17.47179 -40.00821 21737 ft 360 kts 62°
2026-05-08 20:51 -17.45951 -39.98535 21366 ft 357 kts 62°
2026-05-08 20:52 -17.44730 -39.96264 20991 ft 355 kts 62°
2026-05-08 20:52 -17.43419 -39.94125 20603 ft 353 kts 48°
2026-05-08 20:52 -17.41519 -39.92543 20254 ft 347 kts 31°
2026-05-08 20:52 -17.39413 -39.91356 19909 ft 340 kts 28°
2026-05-08 20:53 -17.37318 -39.90245 19551 ft 334 kts 27°
2026-05-08 20:53 -17.35260 -39.89164 19204 ft 328 kts 28°
2026-05-08 20:53 -17.33234 -39.88093 18862 ft 322 kts 28°
2026-05-08 20:53 -17.31250 -39.87035 18525 ft 317 kts 28°
2026-05-08 20:54 -17.29330 -39.86005 18201 ft 312 kts 28°
2026-05-08 20:54 -17.27406 -39.84967 17883 ft 310 kts 28°
2026-05-08 20:54 -17.25493 -39.83933 17561 ft 309 kts 28°
2026-05-08 20:54 -17.23586 -39.82900 17229 ft 307 kts 28°
2026-05-08 20:55 -17.21685 -39.81870 16902 ft 306 kts 28°
2026-05-08 20:55 -17.19800 -39.80849 16574 ft 305 kts 28°
2026-05-08 20:55 -17.17917 -39.79829 16241 ft 304 kts 28°
2026-05-08 20:55 -17.16065 -39.78825 15905 ft 303 kts 28°
2026-05-08 20:56 -17.14189 -39.77808 15587 ft 301 kts 28°
2026-05-08 20:56 -17.12329 -39.76801 15261 ft 300 kts 28°
2026-05-08 20:56 -17.11102 -39.76136 15053 ft 299 kts 28°
2026-05-08 20:56 -17.08655 -39.74810 14613 ft 297 kts 28°
2026-05-08 20:57 -17.06823 -39.73818 14296 ft 296 kts 28°
2026-05-08 20:57 -17.05587 -39.73149 14072 ft 295 kts 28°
2026-05-08 20:57 -17.03783 -39.72174 13752 ft 294 kts 28°
2026-05-08 20:57 -17.01972 -39.71179 13401 ft 293 kts 30°
2026-05-08 20:58 -17.00199 -39.70097 12991 ft 295 kts 32°
2026-05-08 20:58 -16.97886 -39.68626 12549 ft 293 kts 32°
2026-05-08 20:58 -16.96712 -39.67878 12326 ft 292 kts 32°
2026-05-08 20:58 -16.94980 -39.66777 11998 ft 290 kts 32°
2026-05-08 20:59 -16.93280 -39.65701 11680 ft 288 kts 32°
2026-05-08 20:59 -16.91564 -39.64618 11371 ft 287 kts 32°
2026-05-08 20:59 -16.89855 -39.63542 11034 ft 284 kts 32°
2026-05-08 20:59 -16.88175 -39.62485 10723 ft 278 kts 32°
2026-05-08 21:00 -16.86524 -39.61447 10408 ft 273 kts 32°
2026-05-08 21:00 -16.84933 -39.60448 10204 ft 265 kts 32°
2026-05-08 21:00 -16.83380 -39.59474 10093 ft 257 kts 32°
2026-05-08 21:00 -16.81841 -39.58506 9865 ft 261 kts 32°
2026-05-08 21:01 -16.80269 -39.57518 9604 ft 266 kts 32°
2026-05-08 21:01 -16.78684 -39.56524 9335 ft 270 kts 32°
2026-05-08 21:01 -16.77077 -39.55517 9043 ft 269 kts 32°
2026-05-08 21:01 -16.75475 -39.54514 8755 ft 267 kts 32°
2026-05-08 21:02 -16.73896 -39.53519 8476 ft 264 kts 34°
2026-05-08 21:02 -16.72403 -39.52419 8234 ft 261 kts 38°
2026-05-08 21:02 -16.70959 -39.51266 7948 ft 260 kts 39°
2026-05-08 21:02 -16.69529 -39.50113 7665 ft 259 kts 39°
2026-05-08 21:03 -16.68103 -39.48967 7381 ft 258 kts 39°
2026-05-08 21:03 -16.66691 -39.47834 7100 ft 257 kts 39°
2026-05-08 21:03 -16.65265 -39.46698 6812 ft 256 kts 38°
2026-05-08 21:03 -16.63851 -39.45575 6534 ft 255 kts 38°
2026-05-08 21:04 -16.62458 -39.44472 6253 ft 254 kts 38°
2026-05-08 21:04 -16.61049 -39.43350 5969 ft 253 kts 39°
2026-05-08 21:04 -16.59647 -39.42236 5701 ft 254 kts 38°
2026-05-08 21:04 -16.58248 -39.41111 5406 ft 254 kts 38°
2026-05-08 21:05 -16.56864 -39.40014 5130 ft 250 kts 40°
2026-05-08 21:05 -16.55472 -39.38931 4865 ft 250 kts 36°
2026-05-08 21:05 -16.54071 -39.37864 4592 ft 248 kts 39°
2026-05-08 21:05 -16.52704 -39.36772 4309 ft 247 kts 39°
2026-05-08 21:06 -16.51404 -39.35612 4033 ft 244 kts 55°
2026-05-08 21:06 -16.50794 -39.34006 3847 ft 237 kts 76°
2026-05-08 21:06 -16.50377 -39.32359 3672 ft 232 kts 75°
2026-05-08 21:06 -16.49953 -39.30775 3475 ft 221 kts 75°
2026-05-08 21:07 -16.49552 -39.29276 3296 ft 209 kts 74°
2026-05-08 21:07 -16.49171 -39.27856 3125 ft 197 kts 75°
2026-05-08 21:07 -16.48822 -39.26553 2938 ft 180 kts 75°
2026-05-08 21:07 -16.48500 -39.25360 2783 ft 163 kts 74°
2026-05-08 21:08 -16.48208 -39.24264 2698 ft 152 kts 75°
2026-05-08 21:08 -16.47930 -39.23232 2559 ft 144 kts 75°
2026-05-08 21:08 -16.47664 -39.22250 2485 ft 140 kts 75°
2026-05-08 21:08 -16.47406 -39.21286 2349 ft 139 kts 75°
2026-05-08 21:09 -16.47143 -39.20316 2227 ft 139 kts 75°
2026-05-08 21:09 -16.46882 -39.19344 2115 ft 139 kts 75°
2026-05-08 21:09 -16.46621 -39.18373 1998 ft 139 kts 75°
2026-05-08 21:09 -16.46358 -39.17396 1857 ft 141 kts 75°
2026-05-08 21:10 -16.46094 -39.16416 1677 ft 139 kts 75°
2026-05-08 21:10 -16.45830 -39.15436 1502 ft 142 kts 75°
2026-05-08 21:10 -16.45559 -39.14431 1325 ft 145 kts 75°
2026-05-08 21:10 -16.45291 -39.13434 1136 ft 144 kts 75°
2026-05-08 21:11 -16.45022 -39.12435 940 ft 143 kts 75°
2026-05-08 21:11 -16.44753 -39.11441 749 ft 142 kts 75°
2026-05-08 21:11 -16.44485 -39.10447 577 ft 143 kts 75°
2026-05-08 21:11 -16.44226 -39.09455 352 ft 140 kts 75°
2026-05-08 21:12 -16.43971 -39.08525 177 ft 124 kts 72°
2026-05-08 21:12 -16.43766 -39.07793 169 ft 77 kts 74°
2026-05-08 21:12 -16.43680 -39.07469 167 ft 20 kts 75°
2026-05-08 21:12 -16.43646 -39.07316 164 ft 20 kts 87°
2026-05-08 21:13 -16.43637 -39.07235 163 ft 5 kts
2026-05-08 21:13 -16.43632 -39.07271 163 ft 6 kts 259°
2026-05-08 21:13 -16.43641 -39.07317 164 ft 7 kts 255°
2026-05-08 21:13 -16.43655 -39.07372 166 ft 10 kts 255°
2026-05-08 21:14 -16.43682 -39.07470 167 ft 18 kts 253°
2026-05-08 21:14 -16.43723 -39.07615 168 ft 22 kts 254°
2026-05-08 21:14 -16.43764 -39.07764 169 ft 15 kts 253°
2026-05-08 21:14 -16.43792 -39.07867 169 ft 14 kts 255°
2026-05-08 21:15 -16.43818 -39.07966 169 ft 14 kts 255°
2026-05-08 21:15 -16.43843 -39.08060 170 ft 13 kts 255°
2026-05-08 21:15 -16.43881 -39.08137 171 ft 11 kts 211°
2026-05-08 21:15 -16.43954 -39.08132 171 ft 11 kts 169°
2026-05-08 21:16 -16.44023 -39.08109 171 ft 10 kts 160°
2026-05-08 21:16 -16.44054 -39.08100 171 ft 0 kts 167°